Location: Catstown
(52.4386°N, 7.2633°W)
Time: 11:13:56
(UTC+00:00)

Cosmos 1833 Rocket - Pass Details

Date: 25 January 2021
Orbit: 833 x 839 km, 71.0° (Epoch: 24 February)

Event Time Altitude Azimuth Distance (km) Brightness Sun altitude
Rises 19:48:56 0° 326° (NW) 3,393 6.3 -25.0°
Reaches altitude 10° 19:51:27 10° 321° (NW) 2,456 5.6 -25.4°
Maximum altitude 19:56:49 48° 249° (WSW) 1,083 3.5 -26.2°
Enters shadow 20:02:01 11° 176° (S) 2,384 5.0 -27.0°
